| time (UTC) | temp F | wind direction | speed knots | gust knots | rain 1hr in | rain 24hr in | rain mn in | humidity % | barometer mb |
| 20260906213056 | 66 | 61 | 2.6 | 7.8 | 0.00 | 0.00 | 0.00 | 68 | 1014.8 |
| 20260906211555 | 66 | 63 | 0.9 | 10.4 | 0.00 | 0.00 | 0.00 | 68 | 1014.9 |
| 20260906210104 | 67 | 67 | 4.3 | 11.3 | 0.00 | 0.00 | 0.00 | 67 | 1014.8 |
| 20260906204559 | 68 | 29 | 2.6 | 10.4 | 0.00 | 0.00 | 0.00 | 68 | 1014.6 |
| 20260906203053 | 68 | 25 | 2.6 | 7.8 | 0.00 | 0.00 | 0.00 | 68 | 1014.5 |
| 20260906201602 | 68 | 60 | 2.6 | 7.0 | 0.00 | 0.00 | 0.00 | 67 | 1014.5 |
| 20260906200058 | 68 | 10 | 4.3 | 8.7 | 0.00 | 0.00 | 0.00 | 68 | 1014.5 |
| 20260906194551 | 68 | 43 | 2.6 | 10.4 | 0.00 | 0.00 | 0.00 | 67 | 1014.5 |
| 20260906193050 | 68 | 9 | 2.6 | 10.4 | 0.00 | 0.00 | 0.00 | 67 | 1014.5 |
| 20260906191550 | 68 | 48 | 1.7 | 7.8 | 0.00 | 0.00 | 0.00 | 67 | 1014.4 |
| 20260906190127 | 69 | 356 | 3.5 | 7.8 | 0.00 | 0.00 | 0.00 | 67 | 1014.3 |
| 20260906184549 | 69 | 115 | 0.9 | 6.1 | 0.00 | 0.00 | 0.00 | 67 | 1014.3 |
| 20260906183056 | 68 | 13 | 2.6 | 8.7 | 0.00 | 0.00 | 0.00 | 67 | 1014.3 |
| 20260906181546 | 68 | 101 | 1.7 | 7.8 | 0.00 | 0.00 | 0.00 | 67 | 1014.5 |
| 20260906180044 | 68 | 86 | 1.7 | 8.7 | 0.00 | 0.00 | 0.00 | 66 | 1014.5 |
| 20260906174544 | 68 | 79 | 2.6 | 8.7 | 0.00 | 0.00 | 0.00 | 66 | 1014.5 |
| 20260906173048 | 68 | 46 | 2.6 | 12.2 | 0.00 | 0.00 | 0.00 | 66 | 1014.6 |
| 20260906171544 | 68 | 63 | 1.7 | 7.0 | 0.00 | 0.00 | 0.00 | 65 | 1014.6 |
| 20260906170040 | 68 | 45 | 4.3 | 7.8 | 0.00 | 0.00 | 0.00 | 64 | 1014.6 |
| 20260906164539 | 68 | 44 | 2.6 | 7.8 | 0.00 | 0.00 | 0.00 | 62 | 1014.6 |
| 20260906163038 | 68 | 48 | 2.6 | 8.7 | 0.00 | 0.00 | 0.00 | 62 | 1014.6 |
| 20260906161537 | 67 | 23 | 0.9 | 5.2 | 0.00 | 0.00 | 0.00 | 60 | 1014.6 |
| 20260906160035 | 67 | 17 | 1.7 | 8.7 | 0.00 | 0.00 | 0.00 | 60 | 1014.6 |
| 20260906154535 | 67 | 53 | 3.5 | 7.8 | 0.00 | 0.00 | 0.00 | 59 | 1014.5 |
| 20260906153030 | 67 | 25 | 2.6 | 10.4 | 0.00 | 0.00 | 0.00 | 53 | 1014.6 |
| 20260906151532 | 67 | 34 | 3.5 | 8.7 | 0.00 | 0.00 | 0.00 | 44 | 1014.5 |
| 20260906150032 | 67 | 46 | 1.7 | 8.7 | 0.00 | 0.00 | 0.00 | 43 | 1014.6 |
| 20260906144523 | 67 | 41 | 3.5 | 7.0 | 0.00 | 0.00 | 0.00 | 35 | 1014.4 |
| 20260906143019 | 66 | 50 | 0.9 | 7.8 | 0.00 | 0.00 | 0.00 | 34 | 1014.3 |
| 20260906141516 | 65 | 73 | 1.7 | 8.7 | 0.00 | 0.00 | 0.00 | 34 | 1014.3 |
| 20260906140035 | 65 | 108 | 1.7 | 6.1 | 0.00 | 0.00 | 0.00 | 34 | 1014.3 |
| 20260906134510 | 63 | 139 | 1.7 | 7.8 | 0.00 | 0.00 | 0.00 | 35 | 1014.2 |
| 20260906133010 | 63 | 65 | 1.7 | 7.8 | 0.00 | 0.00 | 0.00 | 35 | 1014.1 |
| 20260906131507 | 63 | 57 | 1.7 | 11.3 | 0.00 | 0.00 | 0.00 | 35 | 1014.1 |
| 20260906130010 | 63 | 53 | 1.7 | 8.7 | 0.00 | 0.00 | 0.00 | 35 | 1014.1 |
| 20260906124504 | 62 | 59 | 0.9 | 7.0 | 0.00 | 0.00 | 0.00 | 35 | 1013.8 |
| 20260906123008 | 63 | 42 | 0.9 | 7.0 | 0.00 | 0.00 | 0.00 | 35 | 1013.7 |
| 20260906121502 | 62 | 16 | 0.9 | 7.0 | 0.00 | 0.00 | 0.00 | 35 | 1013.7 |
| 20260906120059 | 62 | 44 | 0.0 | 4.3 | 0.00 | 0.00 | 0.00 | 35 | 1013.5 |
| 20260906114559 | 62 | 39 | 1.7 | 5.2 | 0.00 | 0.00 | 0.00 | 35 | 1013.3 |
| 20260906113102 | 61 | 33 | 1.7 | 7.8 | 0.00 | 0.00 | 0.00 | 35 | 1013.3 |
| 20260906111557 | 61 | 46 | 0.0 | 4.3 | 0.00 | 0.00 | 0.00 | 36 | 1013.0 |
| 20260906110059 | 61 | 40 | 0.9 | 5.2 | 0.00 | 0.00 | 0.00 | 36 | 1012.9 |
| 20260906104552 | 61 | 36 | 0.0 | 3.5 | 0.00 | 0.00 | 0.00 | 36 | 1012.9 |
| 20260906103051 | 60 | 36 | 1.7 | 4.3 | 0.00 | 0.00 | 0.00 | 36 | 1012.8 |
| 20260906101550 | 60 | 35 | 0.9 | 4.3 | 0.00 | 0.00 | 0.00 | 36 | 1012.7 |
| 20260906100050 | 60 | 36 | 1.7 | 3.5 | 0.00 | 0.00 | 0.00 | 36 | 1012.6 |
| 20260906094604 | 61 | 36 | 0.9 | 3.5 | 0.00 | 0.00 | 0.00 | 36 | 1012.6 |
| 20260906093058 | 61 | 36 | 0.9 | 5.2 | 0.00 | 0.00 | 0.00 | 36 | 1012.4 |
| 20260906091545 | 61 | 37 | 0.9 | 3.5 | 0.00 | 0.00 | 0.00 | 36 | 1012.2 |
| 20260906090109 | 61 | 40 | 0.0 | 1.7 | 0.00 | 0.00 | 0.00 | 36 | 1012.1 |
| 20260906084551 | 61 | 40 | 0.0 | 2.6 | 0.00 | 0.00 | 0.00 | 36 | 1011.9 |
| 20260906083043 | 61 | 40 | 0.0 | 1.7 | 0.00 | 0.00 | 0.00 | 36 | 1011.6 |
| 20260906081540 | 61 | 40 | 0.0 | 2.6 | 0.00 | 0.00 | 0.00 | 36 | 1011.6 |
| 20260906080041 | 61 | 40 | 0.0 | 1.7 | 0.00 | 0.00 | 0.00 | 36 | 1011.6 |
| 20260906074549 | 61 | 40 | 0.0 | 0.9 | 0.00 | 0.00 | 0.00 | 36 | 1011.5 |
| 20260906073038 | 61 | 40 | 0.0 | 2.6 | 0.00 | 0.00 | 0.00 | 37 | 1011.7 |
| 20260906071538 | 61 | 40 | 0.0 | 1.7 | 0.00 | 0.00 | 0.00 | 37 | 1011.6 |
| 20260906070039 | 61 | 40 | 0.0 | 0.9 | 0.00 | 0.00 | 0.00 | 36 | 1011.5 |
| 20260906064537 | 62 | 40 | 0.0 | 0.9 | 0.00 | 0.00 | 0.00 | 36 | 1011.6 |
| 20260906063036 | 62 | 40 | 0.0 | 2.6 | 0.00 | 0.00 | 0.00 | 36 | 1011.7 |
| 20260906061546 | 62 | 40 | 0.9 | 3.5 | 0.00 | 0.00 | 0.00 | 36 | 1011.8 |
| 20260906060034 | 62 | 40 | 0.9 | 2.6 | 0.00 | 0.00 | 0.00 | 36 | 1011.8 |
| 20260906054537 | 62 | 41 | 0.9 | 3.5 | 0.00 | 0.00 | 0.00 | 36 | 1011.8 |
| 20260906053033 | 62 | 41 | 1.7 | 3.5 | 0.00 | 0.00 | 0.00 | 36 | 1011.8 |
| 20260906051533 | 61 | 42 | 0.0 | 1.7 | 0.00 | 0.00 | 0.00 | 38 | 1011.8 |
| 20260906050026 | 60 | 41 | 0.0 | 2.6 | 0.00 | 0.00 | 0.00 | 39 | 1011.9 |
| 20260906044526 | 60 | 41 | 0.0 | 1.7 | 0.00 | 0.00 | 0.00 | 40 | 1011.8 |
| 20260906043023 | 60 | 41 | 0.0 | 0.0 | 0.00 | 0.00 | 0.00 | 39 | 1011.7 |
| 20260906041533 | 60 | 41 | 0.0 | 0.0 | 0.00 | 0.00 | 0.00 | 40 | 1011.7 |
| 20260906040022 | 60 | 41 | 0.0 | 0.0 | 0.00 | 0.00 | 0.00 | 41 | 1011.4 |
| 20260906034519 | 60 | 41 | 0.0 | 0.0 | 0.00 | 0.00 | 0.00 | 41 | 1011.5 |
| 20260906033017 | 60 | 41 | 0.0 | 0.0 | 0.00 | 0.00 | 0.00 | 41 | 1011.3 |
| 20260906031520 | 60 | 41 | 0.0 | 0.0 | 0.00 | 0.00 | 0.00 | 42 | 1011.3 |
| 20260906030015 | 60 | 41 | 0.0 | 0.0 | 0.00 | 0.00 | 0.00 | 44 | 1011.3 |
| 20260906024516 | 60 | 41 | 0.0 | 0.0 | 0.00 | 0.00 | 0.00 | 44 | 1011.3 |
| 20260906023015 | 60 | 41 | 0.0 | 0.0 | 0.00 | 0.00 | 0.00 | 45 | 1011.1 |
| 20260906021513 | 60 | 41 | 0.0 | 0.0 | 0.00 | 0.00 | 0.00 | 46 | 1011.1 |
| 20260906020013 | 61 | 41 | 0.0 | 0.0 | 0.00 | 0.00 | 0.00 | 47 | 1011.0 |
| 20260906014525 | 61 | 41 | 0.0 | 0.9 | 0.00 | 0.00 | 0.00 | 49 | 1010.9 |
| 20260906013012 | 61 | 41 | 0.0 | 0.9 | 0.00 | 0.00 | 0.00 | 50 | 1010.9 |
| 20260906011510 | 62 | 42 | 0.0 | 0.9 | 0.00 | 0.00 | 0.00 | 52 | 1010.8 |
| 20260906010032 | 62 | 42 | 0.0 | 1.7 | 0.00 | 0.00 | 0.00 | 53 | 1010.8 |
| 20260906004509 | 63 | 41 | 0.0 | 1.7 | 0.00 | 0.00 | 0.00 | 55 | 1010.7 |
| 20260906003007 | 63 | 41 | 0.0 | 1.7 | 0.00 | 0.00 | 0.00 | 57 | 1010.6 |
| 20260906001506 | 64 | 41 | 0.0 | 1.7 | 0.00 | 0.00 | 0.00 | 61 | 1010.6 |
| 20260906000006 | 65 | 41 | 0.9 | 5.2 | 0.00 | 0.00 | 0.00 | 64 | 1010.5 |
| 20260905234506 | 66 | 50 | 0.9 | 4.3 | 0.00 | 0.00 | 0.00 | 66 | 1010.5 |
| 20260905233005 | 67 | 50 | 0.9 | 3.5 | 0.00 | 0.00 | 0.00 | 68 | 1010.5 |
| 20260905231505 | 68 | 50 | 0.9 | 4.3 | 0.00 | 0.00 | 0.00 | 69 | 1010.5 |
| 20260905230005 | 68 | 45 | 0.0 | 3.5 | 0.00 | 0.00 | 0.00 | 69 | 1010.4 |
| 20260905224504 | 68 | 44 | 0.9 | 4.3 | 0.00 | 0.00 | 0.00 | 69 | 1010.4 |
| 20260905223013 | 69 | 43 | 1.7 | 8.7 | 0.00 | 0.00 | 0.00 | 68 | 1010.4 |
| 20260905221502 | 69 | 23 | 1.7 | 5.2 | 0.00 | 0.00 | 0.00 | 68 | 1010.3 |
| 20260905220002 | 70 | 5 | 2.6 | 7.8 | 0.00 | 0.00 | 0.00 | 68 | 1010.2 |
| 20260905214502 | 70 | 23 | 2.6 | 7.0 | 0.00 | 0.00 | 0.00 | 68 | 1009.9 |